Location: Crescent
(42.8242°N, 73.7329°W)
Time: 17:59:55
(UTC+00:00)

Vanguard 1 - Pass Details

Date: 19 February 2026
Orbit: 653 x 3818 km, 34.2° (Epoch: 5 March)

Event Time Altitude Azimuth Distance (km) Brightness Sun altitude
Rises 17:43:04 0° 193° (SSW) 3,906 14.2 35.5°
Reaches altitude 10° 17:46:17 10° 176° (S) 3,322 14.0 35.4°
Maximum altitude 17:52:08 20° 132° (SE) 3,297 13.3 35.2°
Drops below altitude 10° 18:00:27 10° 93° (E) 4,976 13.6 34.8°
Sets 18:06:56 0° 80° (E) 6,633 14.1 34.5°
